Hourly Weather Bolshie Zavshicy

Today, 17 June, Thursday

Time Temperature Precipitation Wind Pressure Humidity
00:00 +13°C° 0 mm 3 mps 750 mmHg 87%
01:00 +13°C° 0 mm 3 mps 750 mmHg 88%
02:00 +12°C° 0 mm 3 mps 751 mmHg 89%
03:00 +12°C° 0 mm 3 mps 751 mmHg 88%
04:00 +12°C° 0 mm 3 mps 751 mmHg 87%
05:00 +12°C° 0 mm 3 mps 751 mmHg 86%
06:00 +14°C° 0 mm 3 mps 751 mmHg 79%
07:00 +17°C° 0 mm 3 mps 752 mmHg 73%
08:00 +19°C° 0 mm 3 mps 752 mmHg 67%
09:00 +21°C° 0 mm 3 mps 752 mmHg 63%
10:00 +22°C° 0 mm 3 mps 752 mmHg 59%
11:00 +24°C° 0 mm 3 mps 753 mmHg 55%
12:00 +25°C° 0 mm 3 mps 753 mmHg 53%
13:00 +26°C° 0 mm 3 mps 752 mmHg 51%
14:00 +26°C° 0 mm 3 mps 752 mmHg 49%
15:00 +26°C° 0 mm 3 mps 752 mmHg 51%
16:00 +26°C° 0 mm 3 mps 752 mmHg 54%
17:00 +26°C° 0 mm 3 mps 752 mmHg 56%
18:00 +24°C° 0 mm 3 mps 752 mmHg 62%
19:00 +21°C° 0 mm 2 mps 752 mmHg 68%
20:00 +19°C° 0 mm 2 mps 752 mmHg 74%
21:00 +18°C° 0 mm 2 mps 753 mmHg 77%
22:00 +17°C° 0 mm 2 mps 753 mmHg 80%
23:00 +16°C° 0 mm 2 mps 753 mmHg 83%

Tomorrow, 18 June, Friday

Time Temperature Precipitation Wind Pressure Humidity
00:00 +16°C° 0 mm 2 mps 753 mmHg 85%
01:00 +15°C° 0 mm 2 mps 753 mmHg 87%
02:00 +14°C° 0 mm 2 mps 753 mmHg 89%
03:00 +14°C° 0 mm 2 mps 753 mmHg 89%
04:00 +14°C° 0 mm 2 mps 754 mmHg 89%
05:00 +14°C° 0 mm 2 mps 754 mmHg 89%
06:00 +16°C° 0 mm 2 mps 754 mmHg 83%
07:00 +18°C° 0 mm 3 mps 754 mmHg 76%
08:00 +20°C° 0 mm 3 mps 754 mmHg 70%
09:00 +21°C° 0 mm 3 mps 754 mmHg 65%
10:00 +23°C° 0 mm 4 mps 754 mmHg 59%
11:00 +25°C° 0 mm 4 mps 754 mmHg 54%
12:00 +25°C° 0 mm 4 mps 753 mmHg 52%
13:00 +26°C° 0 mm 4 mps 753 mmHg 50%
14:00 +27°C° 0 mm 3 mps 753 mmHg 47%
15:00 +27°C° 0 mm 3 mps 753 mmHg 51%
16:00 +27°C° 0 mm 3 mps 752 mmHg 55%
17:00 +27°C° 0 mm 3 mps 752 mmHg 59%
18:00 +25°C° 0 mm 3 mps 752 mmHg 66%
19:00 +22°C° 0 mm 3 mps 752 mmHg 73%
20:00 +21°C° 0 mm 3 mps 752 mmHg 80%
21:00 +19°C° 0 mm 3 mps 752 mmHg 83%
22:00 +18°C° 0 mm 3 mps 752 mmHg 86%
23:00 +17°C° 0 mm 3 mps 753 mmHg 88%

Day after tomorrow, 19 June, Saturday

Time Temperature Precipitation Wind Pressure Humidity
00:00 +17°C° 0 mm 3 mps 753 mmHg 90%
01:00 +16°C° 0 mm 2 mps 753 mmHg 92%
02:00 +16°C° 0 mm 2 mps 753 mmHg 94%
03:00 +16°C° 0 mm 2 mps 753 mmHg 94%
04:00 +16°C° 0 mm 2 mps 753 mmHg 95%
05:00 +16°C° 0 mm 2 mps 753 mmHg 95%
06:00 +18°C° 0 mm 2 mps 753 mmHg 89%
07:00 +20°C° 0 mm 3 mps 753 mmHg 83%
08:00 +22°C° 0 mm 3 mps 753 mmHg 77%
09:00 +24°C° 0 mm 3 mps 753 mmHg 72%
10:00 +25°C° 0 mm 3 mps 752 mmHg 67%
11:00 +26°C° 0 mm 4 mps 752 mmHg 61%
12:00 +27°C° 0 mm 4 mps 752 mmHg 58%
13:00 +27°C° 0 mm 4 mps 751 mmHg 55%
14:00 +28°C° 0 mm 4 mps 751 mmHg 52%
15:00 +27°C° 0 mm 4 mps 751 mmHg 55%
16:00 +27°C° 0 mm 3 mps 751 mmHg 57%
17:00 +27°C° 0 mm 3 mps 751 mmHg 59%
18:00 +26°C° 0 mm 3 mps 751 mmHg 66%
19:00 +24°C° 0 mm 3 mps 750 mmHg 72%
20:00 +21°C° 0 mm 3 mps 750 mmHg 78%
21:00 +20°C° 0 mm 3 mps 750 mmHg 81%
22:00 +20°C° 0 mm 3 mps 751 mmHg 84%
23:00 +19°C° 0 mm 3 mps 751 mmHg 87%

20 June, Sunday

Time Temperature Precipitation Wind Pressure Humidity
00:00 +18°C° 0 mm 3 mps 751 mmHg 89%
01:00 +18°C° 0 mm 2 mps 751 mmHg 91%
02:00 +18°C° 0 mm 2 mps 750 mmHg 93%
03:00 +18°C° 0 mm 2 mps 750 mmHg 92%
04:00 +19°C° 0 mm 2 mps 750 mmHg 90%
05:00 +19°C° 0 mm 2 mps 750 mmHg 89%
06:00 +20°C° 0 mm 2 mps 750 mmHg 86%
07:00 +21°C° 0 mm 2 mps 750 mmHg 84%
08:00 +23°C° 0 mm 2 mps 750 mmHg 82%
09:00 +24°C° 0 mm 3 mps 750 mmHg 78%
10:00 +24°C° 0 mm 3 mps 750 mmHg 73%
11:00 +25°C° 0 mm 3 mps 750 mmHg 69%
12:00 +26°C° 0.3 mm 3 mps 750 mmHg 67%
13:00 +27°C° 0.3 mm 3 mps 750 mmHg 66%
14:00 +28°C° 0.3 mm 3 mps 749 mmHg 65%
15:00 +28°C° 0.2 mm 3 mps 749 mmHg 64%
16:00 +28°C° 0.2 mm 3 mps 749 mmHg 64%
17:00 +28°C° 0.2 mm 2 mps 748 mmHg 64%
18:00 +27°C° 0.1 mm 2 mps 748 mmHg 70%
19:00 +25°C° 0.1 mm 2 mps 748 mmHg 76%
20:00 +24°C° 0.1 mm 3 mps 748 mmHg 82%
21:00 +22°C° 0 mm 3 mps 748 mmHg 84%
22:00 +21°C° 0 mm 3 mps 748 mmHg 86%
23:00 +20°C° 0 mm 3 mps 748 mmHg 89%

21 June, Monday

Time Temperature Precipitation Wind Pressure Humidity
00:00 +19°C° 0 mm 3 mps 748 mmHg 90%
01:00 +18°C° 0 mm 2 mps 748 mmHg 92%
02:00 +18°C° 0 mm 2 mps 748 mmHg 94%
03:00 +18°C° 0 mm 2 mps 748 mmHg 94%
04:00 +18°C° 0 mm 2 mps 748 mmHg 94%
05:00 +18°C° 0 mm 2 mps 748 mmHg 95%
06:00 +19°C° 0 mm 3 mps 748 mmHg 89%
07:00 +21°C° 0 mm 3 mps 748 mmHg 82%
08:00 +24°C° 0 mm 3 mps 748 mmHg 76%
09:00 +25°C° 0 mm 4 mps 748 mmHg 70%
10:00 +26°C° 0 mm 5 mps 748 mmHg 64%
11:00 +28°C° 0 mm 5 mps 748 mmHg 57%
12:00 +28°C° 0 mm 5 mps 747 mmHg 55%
13:00 +29°C° 0 mm 5 mps 747 mmHg 54%
14:00 +30°C° 0 mm 5 mps 747 mmHg 52%
15:00 +29°C° 0 mm 5 mps 747 mmHg 55%
16:00 +29°C° 0 mm 5 mps 747 mmHg 58%
17:00 +29°C° 0 mm 5 mps 747 mmHg 61%
18:00 +27°C° 0 mm 4 mps 746 mmHg 68%
19:00 +26°C° 0 mm 4 mps 746 mmHg 75%
20:00 +25°C° 0 mm 3 mps 746 mmHg 82%
21:00 +24°C° 0 mm 3 mps 746 mmHg 84%
22:00 +22°C° 0 mm 3 mps 746 mmHg 86%
23:00 +21°C° 0 mm 3 mps 746 mmHg 87%

22 June, Tuesday

Time Temperature Precipitation Wind Pressure Humidity
00:00 +20°C° 0 mm 3 mps 746 mmHg 90%
01:00 +20°C° 0 mm 3 mps 746 mmHg 93%
02:00 +20°C° 0 mm 3 mps 746 mmHg 96%
03:00 +20°C° 0 mm 3 mps 746 mmHg 96%
04:00 +20°C° 0 mm 3 mps 746 mmHg 96%
05:00 +20°C° 0 mm 3 mps 746 mmHg 96%
06:00 +21°C° 0 mm 3 mps 746 mmHg 90%
07:00 +23°C° 0 mm 4 mps 747 mmHg 83%
08:00 +25°C° 0 mm 4 mps 747 mmHg 77%
09:00 +27°C° 0 mm 5 mps 747 mmHg 70%
10:00 +28°C° 0 mm 5 mps 747 mmHg 62%
11:00 +30°C° 0 mm 5 mps 747 mmHg 55%
12:00 +30°C° 0 mm 5 mps 747 mmHg 53%
13:00 +32°C° 0 mm 5 mps 746 mmHg 52%
14:00 +33°C° 0 mm 5 mps 746 mmHg 50%
15:00 +32°C° 0 mm 5 mps 746 mmHg 52%
16:00 +32°C° 0 mm 5 mps 746 mmHg 54%
17:00 +30°C° 0 mm 5 mps 746 mmHg 55%
18:00 +29°C° 0 mm 5 mps 746 mmHg 61%
19:00 +27°C° 0 mm 5 mps 746 mmHg 66%
20:00 +25°C° 0 mm 5 mps 747 mmHg 71%
21:00 +23°C° 0 mm 4 mps 747 mmHg 74%
22:00 +22°C° 0 mm 4 mps 747 mmHg 78%
23:00 +21°C° 0 mm 4 mps 747 mmHg 81%
Show more